STARLINK-3045, 49173

Orbit data source: Space-Track

STARLINK-3045, 49173 is a payload satellite owned by SpaceX/Seattle (US) in LEO that was launched on Tue, 14 Sep 2021 UTC via an FALCON 9 launch vehicle from the Air Force Western Test Range (AFWTR). Payload-class satellites include a variety of spacecraft equipped with specific instruments for various scientific and technological missions. These include communications satellites like Starlink; space stations such as the ISS; scientific satellites like the Hubble; Earth observation satellites from companies like Planet Labs, Umbra, and HawkEye 360; GPS; miniature CubeSats for education and research; and military/defense satellites.

Loading next visibility...
Identifier
49173, 2021-082AV
Orbit
LEO
Country
Flag of USUS
Related business
Manufacturer
SpaceX/Seattle
Mission
Operational Commercial Communications
Bus & Motor
STARLINK, Unknown motor
Mass
297 kg wet, ~275 kg dry
Launch date (UTC)
2021-09-14 (5 years ago)
Launch vehicle
FALCON 9
Launch site
Air Force Western Test Range (AFWTR)
Object type
Payload
Rocket body
Debris
Shape & HBR
Box + 1 Pan, 10.1 m
Radar Cross Section
13.562 m², Large (>1 m²)

Expand to show TLE details & history
Last TLE update: 1 day ago

TLE from 1 day ago
0 STARLINK-3045
1 49173U 21082AV  26124.96793611 -.00076666  00000-0 -65891-2 0  9998
2 49173  69.9981 132.5544 0003417 126.7438 233.4035 14.97730347254903
Epoch: 2026-05-04T23:13Z
TLE epoch observation values (Epoch: 2026-05-04T23:13:49.679Z)
Latitude
-0.00004°
Longitude
-78.75214°
Altitude
577.751 km
Speed
7.571 km/s
True Right ascension
08h 50m 13s
True Declination
0° 00' 00"
Sunlit
Object was in daylight at epoch
Visualization orbit readout
Latitude
Unknown
Longitude
Unknown
Altitude
Unknown
Speed
Unknown
Apparent Right ascension
Unknown
Apparent Declination
Unknown
Sunlit
N/A
Visualization observer readout
Local Sidereal Time
09:05:22
Azimuth
Unknown
Elevation
Unknown
Doppler factor
Unknown
Orbital elements
Apogee altitude
574.235 km
Perigee altitude
569.485 km
Semi-major axis
6,949.997 km
Eccentricity
0.00034
Inclination
69.9981°
RAAN
132.5544°
Arg. of periapsis
126.7438°
True anomaly
233.37207°
Mean anomaly
233.4035°
Eccentric anomaly
233.38778°
Mean motion
3.74599 °/min
Orbital period
96.1 mins
BSTAR
-0.0065891
Loading maneuver chart data...
Computing Atmospheric mass density...
Loading historical data...
Loading historical data...
Loading historical data...
Loading historical data...
Loading historical data...
Loading historical data...
Loading historical data...

Documentation

Showing up to 5 results
|